[[{"header":{"parameterUnit":"m.s-1","parameterCategory":1,"la1":30.2991,"la2":30.254,"lo1":-89.0895,"lo2":-89.0444,"dy":0.0017,"dx":0.0017,"nx":28,"ny":28,"refTime":"2024-12-21T09:00:00:Z","depth":0,"parameterNumber":2,"parameterNumberName":"U-component_of_WINDS"},"data":[0,0,0,0,0,0,0,0,0,0,0,0,0,0,0,0,0,0,0,0,0,0,0,0,0,0,0,0,0,0,0,0,0,0,0,0,0,0,0,0,0,0,0,0,0,0,0,0,0,0,0,0,0,0,0,0,0,0,-1.3098,-1.3099,0,-1.3141,-1.3142,-1.3142,-1.3071,-1.3069,-1.3066,-1.3064,-1.3111,-1.3114,-1.3118,0,0,0,0,0,0,0,0,0,0,0,0,0,-1.2956,-1.2959,-1.3098,-1.3099,-1.3099,-1.3141,-1.3142,-1.3142,-1.3071,-1.3069,-1.3066,-1.3063,-1.311,-1.3114,-1.3118,0,0,0,0,0,0,0,0,0,0,0,0,0,-1.3011,-1.296,-1.3098,-1.3069,-1.3067,-1.3141,-1.3142,-1.3142,-1.3072,-1.3068,-1.3065,-1.3061,-1.3108,-1.3113,-1.3118,-1.3224,0,0,-1.3135,-1.3137,0,0,0,0,0,0,0,0,-1.3008,-1.3016,-1.3073,-1.3071,-1.3069,-1.3097,-1.3109,-1.317,-1.3073,-1.307,-1.3064,-1.306,-1.3109,-1.3114,-1.313,-1.3226,-1.3228,-1.3135,-1.3138,-1.3141,-1.3142,0,0,0,0,0,0,0,-1.3004,-1.3014,-1.3115,-1.3074,-1.3071,-1.3054,-1.3058,-1.312,-1.311,-1.307,-1.3065,-1.3071,-1.3107,-1.3125,-1.3131,-1.3229,-1.3135,-1.314,-1.3143,-1.3145,-1.3413,-1.3417,0,0,0,0,0,0,-1.3004,-1.3011,-1.3114,-1.3116,-1.3028,-1.306,-1.3064,-1.3092,-1.3109,-1.3108,-1.3074,-1.3067,-1.3118,-1.3125,-1.3132,-1.3258,-1.314,-1.3145,-1.3148,-1.3409,-1.3414,-1.3419,0,0,0,0,0,0,-1.3001,-1.3013,-1.3112,-1.3062,-1.3074,-1.3066,-1.3098,-1.3094,-1.3112,-1.3112,-1.311,-1.3094,-1.3116,-1.3125,-1.3202,-1.3258,-1.3148,-1.3153,-1.3405,-1.3411,-1.3416,-1.3509,0,0,0,0,0,0,-1.2997,-1.3013,-1.3053,-1.3064,-1.3077,-1.3181,-1.3101,-1.3098,-1.3121,-1.3113,-1.313,-1.313,-1.3113,-1.3194,-1.3207,-1.3264,-1.3157,-1.34,-1.3408,-1.3415,-1.3501,-1.3518,-1.3532,0,0,0,0,0,-1.2992,-1.3078,-1.3055,-1.3068,-1.3126,-1.3184,-1.3191,-1.317,-1.3126,-1.3166,-1.3166,-1.3129,-1.3249,-1.3203,-1.3216,-1.3276,-1.3396,-1.3405,-1.3414,-1.3494,-1.3514,-1.3531,0,0,0,0,0,0,-1.3075,-1.3079,-1.3054,-1.3145,-1.3165,-1.3172,-1.3222,-1.3192,-1.3226,-1.3217,-1.319,-1.3194,-1.3277,-1.3283,-1.3231,-1.3378,-1.3315,-1.3328,-1.3372,-1.3391,-1.3406,-1.3404,-1.3161,0,0,0,0,0,-1.3104,-1.315,-1.315,-1.3231,-1.3242,-1.3231,-1.3255,-1.3237,-1.3256,-1.3265,-1.327,-1.3291,-1.3333,-1.3362,-1.3401,-1.35,-1.3504,-1.3548,-1.3563,-1.3576,-1.3587,-1.3641,-1.3661,-1.3448,-1.3448,-1.3448,0,0,-1.3164,-1.3171,-1.3203,-1.3248,-1.3261,-1.331,-1.3238,-1.3293,-1.3329,-1.3273,-1.3346,-1.335,-1.3372,-1.3461,-1.35,-1.3469,-1.3646,-1.3587,-1.3597,-1.3602,-1.3652,-1.3672,-1.369,-1.3454,-1.3453,-1.3452,0,0,-1.3299,-1.3309,-1.3377,-1.3391,-1.3411,-1.3403,-1.3419,-1.3431,-1.3431,-1.3503,-1.3462,-1.3505,-1.3578,-1.3595,-1.3614,-1.3753,-1.3721,-1.3767,-1.3848,-1.39,-1.3917,-1.3932,-1.3983,-1.4002,-1.3778,-1.3778,-1.3778,0,-1.3372,-1.3444,-1.3417,-1.3474,-1.3496,-1.3445,-1.3515,-1.353,-1.3562,-1.3578,-1.3542,-1.3633,-1.3644,-1.3736,-1.377,-1.3786,-1.3805,-1.3766,-1.3917,-1.3931,-1.3945,-1.3993,-1.4012,-1.3783,-1.3783,-1.3782,-1.3782,0,-1.3533,-1.3583,-1.3636,-1.3667,-1.3694,-1.3758,-1.3741,-1.3771,-1.375,-1.3746,-1.382,-1.383,-1.3871,-1.3891,-1.3871,-1.398,-1.396,-1.3921,-1.3857,-1.3971,-1.4016,-1.4034,-1.3791,-1.3789,-1.3788,-1.3786,0,0,-1.3724,-1.3738,-1.3758,-1.3772,-1.3789,-1.3828,-1.3888,-1.3927,-1.3954,-1.3977,-1.4028,-1.4091,-1.4054,-1.4075,-1.4056,-1.4102,-1.4213,-1.4057,-1.4057,-1.4087,-1.4335,-1.4367,-1.4389,-1.419,-1.4194,-1.4196,-1.4334,0,-1.386,-1.3965,-1.3941,-1.4045,-1.4091,-1.4042,-1.4095,-1.4112,-1.4109,-1.4148,-1.4144,-1.4189,-1.4136,-1.4149,-1.4192,-1.4191,-1.4263,-1.418,-1.4239,-1.4242,-1.4238,-1.4412,-1.4446,-1.4575,-1.4351,-1.4354,-1.4356,0,-1.4033,-1.4062,-1.417,-1.4179,-1.4198,-1.4246,-1.4279,-1.4316,-1.4334,-1.4328,-1.435,-1.4323,-1.4383,-1.4317,-1.44,-1.4344,-1.4367,-1.437,-1.4374,-1.4381,-1.4308,-1.4426,-1.4616,-1.4636,-1.4384,-1.4382,-1.438,0,-1.4164,-1.423,-1.4303,-1.4315,-1.4328,-1.4363,-1.437,-1.4383,-1.4408,-1.4436,-1.4452,-1.4487,-1.4508,-1.4536,-1.4518,-1.4471,-1.4605,-1.4537,-1.4603,-1.4604,-1.4636,-1.4635,-1.4835,-1.4647,-1.4647,-1.4646,-1.4646,0,-1.432,-1.4388,-1.4362,-1.4407,-1.4482,-1.4454,-1.4529,-1.453,-1.4542,-1.4587,-1.4547,-1.459,-1.4563,-1.4604,-1.459,-1.4662,-1.4671,-1.4669,-1.4665,-1.4674,-1.4675,-1.469,-1.4682,-1.4651,-1.465,-1.4649,-1.4648,0,-1.4481,-1.4465,-1.4542,-1.4546,-1.4549,-1.4604,-1.4608,-1.465,-1.4643,-1.47,-1.4712,-1.4701,-1.4747,-1.4731,-1.478,-1.4771,-1.4863,-1.4846,-1.4858,-1.4854,-1.4922,-1.4917,-1.5141,-1.517,-1.4961,-1.4963,-1.4965,0,-1.4582,-1.4633,-1.4643,-1.467,-1.4679,-1.4723,-1.4747,-1.472,-1.4747,-1.477,-1.481,-1.4852,-1.4885,-1.496,-1.4957,-1.4995,-1.498,-1.5056,-1.4985,-1.4993,-1.4983,-1.4981,-1.4987,-1.5071,-1.5073,-1.5075,-1.5077,0,-1.4765,-1.4754,-1.479,-1.4824,-1.4853,-1.4879,-1.49,-1.4925,-1.4899,-1.4932,-1.4978,-1.5003,-1.5052,-1.5095,-1.5128,-1.5135,-1.5103,-1.5098,-1.5116,-1.5127,-1.5132,-1.5132,-1.4898,-1.5094,-1.5092,-1.5091,-1.509,-1.5089,-1.49,-1.4944,-1.4957,-1.4998,-1.5011,-1.5032,-1.5072,-1.5069,-1.5106,-1.5144,-1.5126,-1.518,-1.5195,-1.5236,-1.5248,-1.5289,-1.526,-1.5286,-1.5292,-1.53,-1.5309,-1.5123,-1.5295,-1.5295,-1.5294,-1.5294,-1.5293,0,-1.5082,-1.5088,-1.5126,-1.5157,-1.519,-1.5153,-1.5175,-1.5205,-1.5252,-1.5269,-1.5301,-1.5354,-1.5394,-1.5393,-1.5431,-1.5465,-1.5451,-1.5476,-1.5475,-1.5477,-1.5332,-1.5314,-1.5487,-1.5487,-1.5487,-1.5487,-1.5487,-1.5486,-1.5181,-1.5253,-1.5244,-1.5321,-1.5326,-1.5378,-1.5393,-1.5412,-1.5425,-1.5486,-1.5519,-1.5517,-1.5527,-1.5565,-1.56,-1.5599,-1.5616,-1.5647,-1.5641,-1.5506,-1.5487,-1.5469,-1.5452,-1.565,-1.5651,-1.5782,-1.5783,-1.5784]},{"header":{"parameterUnit":"m.s-1","parameterCategory":1,"la1":30.2991,"la2":30.254,"lo1":-89.0895,"lo2":-89.0444,"dy":0.0017,"dx":0.0017,"nx":28,"ny":28,"refTime":"2024-12-21T09:00:00:Z","depth":0,"parameterNumber":3,"parameterNumberName":"V-component_of_WINDS"},"data":[0,0,0,0,0,0,0,0,0,0,0,0,0,0,0,0,0,0,0,0,0,0,0,0,0,0,0,0,0,0,0,0,0,0,0,0,0,0,0,0,0,0,0,0,0,0,0,0,0,0,0,0,0,0,0,0,0,0,-6.9877,-6.9878,0,-7.0008,-7.0009,-7.0011,-6.9912,-6.9907,-6.9903,-6.9899,-7.0028,-7.0035,-7.0042,0,0,0,0,0,0,0,0,0,0,0,0,0,-6.9536,-6.9543,-6.9877,-6.9879,-6.988,-7.0007,-7.0009,-7.0011,-6.9912,-6.9907,-6.9902,-6.9897,-7.0025,-7.0034,-7.0043,0,0,0,0,0,0,0,0,0,0,0,0,0,-6.9677,-6.9545,-6.9877,-6.9846,-6.9845,-7.0007,-7.0009,-7.0011,-6.9913,-6.9907,-6.9901,-6.9895,-7.0022,-7.0033,-7.0044,-7.0241,0,0,-7.0078,-7.0083,0,0,0,0,0,0,0,0,-6.9669,-6.969,-6.9849,-6.9849,-6.9848,-6.9937,-6.9936,-7.0088,-6.9915,-6.9887,-6.9899,-6.9891,-7.0002,-7.0015,-7.0053,-7.0247,-7.0253,-7.0079,-7.0086,-7.0091,-7.0094,0,0,0,0,0,0,0,-6.966,-6.9684,-6.9928,-6.9852,-6.9851,-6.9824,-6.9837,-6.9965,-6.9979,-6.9889,-6.9882,-6.99,-7.0001,-7.0043,-7.0055,-7.0255,-7.0079,-7.0089,-7.0096,-7.01,-7.0616,-7.0622,0,0,0,0,0,0,-6.9654,-6.9676,-6.9924,-6.9932,-6.9741,-6.9836,-6.985,-6.9915,-6.9978,-6.9981,-6.9905,-6.9894,-7.0027,-7.0043,-7.006,-7.0294,-7.0091,-7.0101,-7.0107,-7.0609,-7.0617,-7.0625,0,0,0,0,0,0,-6.9647,-6.9677,-6.9919,-6.9803,-6.9831,-6.9849,-6.9922,-6.9921,-6.9963,-6.9989,-6.9991,-6.9946,-7.0022,-7.0044,-7.0197,-7.0297,-7.0106,-7.0116,-7.06,-7.0611,-7.0621,-7.0765,0,0,0,0,0,0,-6.9637,-6.9675,-6.9751,-6.9805,-6.9838,-7.0057,-6.9928,-6.9928,-6.9983,-6.997,-7.0028,-7.0031,-7.0019,-7.0181,-7.0208,-7.0309,-7.0125,-7.0591,-7.0605,-7.0618,-7.0751,-7.0779,-7.0803,0,0,0,0,0,-6.9626,-6.9786,-6.9756,-6.9786,-6.9934,-7.0062,-7.0081,-7.0065,-6.9991,-7.0067,-7.0084,-7.0029,-7.0282,-7.0197,-7.0227,-7.0333,-7.0585,-7.0601,-7.0617,-7.0739,-7.0773,-7.0802,0,0,0,0,0,0,-6.9742,-6.9792,-6.976,-6.9943,-6.9999,-7.0046,-7.0141,-7.0102,-7.0179,-7.0164,-7.0139,-7.0153,-7.0314,-7.0338,-7.0244,-7.0526,-7.0421,-7.0444,-7.0504,-7.0537,-7.0562,-7.0553,-7.0134,0,0,0,0,0,-6.9789,-6.9891,-6.9928,-7.0086,-7.0116,-7.0124,-7.0179,-7.0162,-7.0219,-7.0242,-7.027,-7.0326,-7.0417,-7.0478,-7.0564,-7.0754,-7.0764,-7.0841,-7.0867,-7.0888,-7.0907,-7.1008,-7.1042,-7.0677,-7.0676,-7.0676,0,0,-6.9887,-6.9927,-6.9993,-7.011,-7.0152,-7.0256,-7.0145,-7.026,-7.0336,-7.0259,-7.0406,-7.0428,-7.0488,-7.0661,-7.0738,-7.0686,-7.1011,-7.0908,-7.0924,-7.0933,-7.1028,-7.1063,-7.1093,-7.0687,-7.0685,-7.0684,0,0,-7.0119,-7.0161,-7.0296,-7.034,-7.0406,-7.041,-7.0442,-7.0495,-7.0508,-7.0655,-7.0599,-7.0688,-7.0846,-7.0892,-7.0935,-7.1184,-7.1136,-7.1212,-7.1347,-7.1445,-7.1474,-7.1499,-7.1587,-7.1619,-7.1232,-7.1232,-7.1232,0,-7.0233,-7.0389,-7.037,-7.049,-7.0542,-7.0478,-7.0614,-7.0658,-7.0747,-7.0784,-7.0725,-7.0923,-7.0959,-7.114,-7.1201,-7.1238,-7.1273,-7.1206,-7.1472,-7.1497,-7.152,-7.1604,-7.1637,-7.1241,-7.124,-7.1239,-7.1238,0,-7.0524,-7.0634,-7.0735,-7.0825,-7.0888,-7.1015,-7.1014,-7.1081,-7.1058,-7.1067,-7.1217,-7.1258,-7.1351,-7.1392,-7.1371,-7.1571,-7.1536,-7.1475,-7.1369,-7.1565,-7.1642,-7.1674,-7.1253,-7.125,-7.1248,-7.1245,0,0,-7.0834,-7.0912,-7.0949,-7.0989,-7.1056,-7.1139,-7.1262,-7.1354,-7.1411,-7.1474,-7.1576,-7.1711,-7.1655,-7.1705,-7.1687,-7.1774,-7.1967,-7.1702,-7.1703,-7.1749,-7.2189,-7.2234,-7.2272,-7.1936,-7.1942,-7.1946,-7.2183,0,-7.1069,-7.1286,-7.1272,-7.1475,-7.1575,-7.1515,-7.1622,-7.1673,-7.1686,-7.177,-7.1782,-7.1879,-7.1798,-7.1827,-7.191,-7.1926,-7.2055,-7.1909,-7.2028,-7.2033,-7.2015,-7.2313,-7.2362,-7.2583,-7.2214,-7.2219,-7.2223,0,-7.1372,-7.1448,-7.1662,-7.1713,-7.1754,-7.1851,-7.1934,-7.2016,-7.2072,-7.2075,-7.2131,-7.2098,-7.222,-7.2112,-7.2279,-7.218,-7.2227,-7.2243,-7.2251,-7.2261,-7.214,-7.2331,-7.2654,-7.2687,-7.2271,-7.2267,-7.2263,0,-7.1576,-7.1731,-7.1879,-7.1914,-7.1978,-7.2047,-7.2076,-7.2127,-7.2183,-7.2254,-7.229,-7.2375,-7.2421,-7.2486,-7.2476,-7.2398,-7.2646,-7.2537,-7.265,-7.2651,-7.2705,-7.2702,-7.3041,-7.2737,-7.2737,-7.2736,-7.2735,0,-7.184,-7.1973,-7.1971,-7.2062,-7.2208,-7.219,-7.2335,-7.2356,-7.2401,-7.2493,-7.2446,-7.2533,-7.2516,-7.2602,-7.2595,-7.2734,-7.2755,-7.2759,-7.2756,-7.2764,-7.2764,-7.2795,-7.2779,-7.2745,-7.2743,-7.2741,-7.274,0,-7.2093,-7.2097,-7.2254,-7.2302,-7.2316,-7.2422,-7.2462,-7.2547,-7.2554,-7.2672,-7.2698,-7.271,-7.281,-7.2807,-7.2919,-7.2914,-7.3085,-7.3063,-7.3067,-7.3062,-7.3176,-7.3165,-7.3546,-7.3594,-7.326,-7.3263,-7.3266,0,-7.2261,-7.2362,-7.2421,-7.248,-7.2514,-7.261,-7.2667,-7.2653,-7.2714,-7.2785,-7.2861,-7.2956,-7.3032,-7.3193,-7.321,-7.3295,-7.3275,-7.3403,-7.3288,-7.3292,-7.3277,-7.3271,-7.3281,-7.3426,-7.3429,-7.3432,-7.3435,0,-7.2559,-7.2556,-7.2641,-7.2727,-7.2797,-7.2864,-7.2925,-7.2976,-7.2967,-7.3038,-7.314,-7.3199,-7.3314,-7.3408,-7.349,-7.3517,-7.3475,-7.3471,-7.3502,-7.3511,-7.3508,-7.3511,-7.3128,-7.3462,-7.346,-7.3458,-7.3456,-7.3455,-7.2774,-7.2861,-7.2916,-7.3012,-7.3056,-7.3115,-7.3197,-7.3215,-7.33,-7.3394,-7.3379,-7.3493,-7.3545,-7.3651,-7.3686,-7.3773,-7.3728,-7.3772,-7.3784,-7.3795,-7.3808,-7.3495,-7.3788,-7.3787,-7.3786,-7.3786,-7.3785,0,-7.3069,-7.3101,-7.319,-7.3278,-7.3353,-7.3308,-7.3373,-7.3438,-7.354,-7.3593,-7.3668,-7.3784,-7.3876,-7.39,-7.3988,-7.4053,-7.4035,-7.4076,-7.4071,-7.4078,-7.3843,-7.3808,-7.4089,-7.4089,-7.4089,-7.4089,-7.4088,-7.4088,-7.3231,-7.3375,-7.3379,-7.3544,-7.3574,-7.3687,-7.3728,-7.3781,-7.3823,-7.3956,-7.4032,-7.4048,-7.4089,-7.4179,-7.426,-7.4264,-7.4299,-7.4348,-7.4344,-7.4125,-7.4094,-7.4065,-7.4032,-7.4355,-7.4356,-7.4571,-7.4574,-7.4575]}]]